Retour au catalogue

USA 410

ActifMilitaireVLEO
NORAD 61031·PAYLOAD·🇺🇸 United States

Lancé Sep 6, 2024 depuis Vandenberg Space Force Base

Loading…

Prochains Passages (prochaines 24 heures)

TLE

PériméSource: Mike McCants

Époque: Aug 25, 2026, 22:33 UTC

1 61031U 24160L   26237.94015148 0.00000000  00000-0  00000-0 0    09
2 61031  70.0267 181.8094 0003000 257.6002 102.3998 14.96713400    08

Suivez USA 410 en temps réel avec AllMySat

Download on the App Store